YAOGAN-10

Last updated on Sun Apr 12 2026 00:02:34 GMT+0000 (Coordinated Universal Time)

1 36834U 10038A 26101.53845927 .00001793 00000+0 21576-3 0 9992 2 36834 97.9048 125.4668 0001523 82.1481 78.1636 14.85151929847319
UTC large
Height (km)
Speed (km/s)
/
Latitude / Longitude
Inclination (degrees)
Orbital Period (minutes)
Azimuth
Elevation
Range (km)
Doppler Factor

Next 0 passes for location: London (51.5072 / 0.1276)

Sorry there are no passes over London.
YAOGAN-10